EW3619 Weather Reports


Display with metric or nautical units.
time (UTC)temp
F
wind
direction
speed
MPH
gust
MPH
rain 1hr
in
rain 24hr
in
rain mn
in
humidity
%
barometer
mb
20260506061554 52 335 0.0 2.0 0.00 0.21 0.21 1 1016.8
20260506044521 54 351 1.0 3.0 0.00 0.21 0.21 1 1016.3
20260506043016 56 351 1.0 4.0 0.00 0.21 0.21 1 1016.1
20260506041513 57 288 1.0 3.0 0.00 0.21 0.21 1 1015.8
20260506040016 57 288 2.0 4.0 0.00 0.21 0.21 1 1015.6
20260506034503 57 268 1.0 3.0 0.00 0.21 0.21 1 1015.5
20260506033100 58 260 2.0 4.0 0.00 0.21 0.21 1 1015.3
20260506031556 58 273 0.0 2.0 0.00 0.21 0.21 1 1015.3
20260506030057 59 272 2.0 4.0 0.00 0.21 0.21 1 1015.1
20260506024549 60 259 3.0 7.0 0.00 0.21 0.21 1 1014.8
20260506023054 61 271 2.0 5.0 0.00 0.21 0.21 1 1014.5
20260506021543 61 259 4.0 9.0 0.00 0.21 0.21 1 1014.4
20260506020035 62 246 2.0 7.0 0.00 0.21 0.21 1 1014.2
20260506014529 62 274 2.0 8.0 0.00 0.21 0.21 1 1014.1
20260506013025 63 248 5.0 10.0 0.00 0.21 0.21 1 1014.1
20260506011520 63 279 3.0 9.0 0.00 0.21 0.21 1 1014.1
20260506010033 64 285 5.0 10.0 0.00 0.21 0.21 1 1013.9
20260506004515 64 231 4.0 9.0 0.00 0.21 0.21 1 1013.9
20260506003007 64 249 4.0 11.0 0.00 0.21 0.21 1 1013.8
20260506001502 65 204 5.0 12.0 0.00 0.21 0.21 1 1013.8
20260506000059 65 234 7.0 11.0 0.00 0.21 0.21 1 1013.7
20260505234607 65 256 3.0 13.0 0.00 0.21 0.21 1 1013.6
20260505233049 65 300 5.0 13.0 0.00 0.21 0.21 1 1013.7
20260505231545 66 300 4.0 10.0 0.00 0.21 0.21 1 1013.9
20260505230040 66 302 5.0 14.0 0.00 0.21 0.21 1 1013.7
20260505224536 65 305 6.0 15.0 0.00 0.21 0.21 1 1013.9
20260505223034 66 266 3.0 13.0 0.00 0.21 0.21 1 1013.9
20260505221527 66 298 4.0 14.0 0.00 0.21 0.21 1 1013.9
20260505220022 66 258 6.0 15.0 0.00 0.21 0.21 1 1014.0
20260505214529 66 207 8.0 15.0 0.00 0.21 0.21 1 1014.1
20260505213013 65 229 4.0 12.0 0.01 0.21 0.21 1 1014.3
20260505211509 65 304 6.0 16.0 0.01 0.21 0.21 1 1014.3
20260505210006 65 190 5.0 15.0 0.01 0.21 0.21 1 1014.3
20260505204605 65 296 4.0 11.0 0.01 0.21 0.21 1 1014.3
20260505203058 65 281 5.0 11.0 0.00 0.20 0.20 1 1014.7
20260505201554 64 254 7.0 13.0 0.00 0.20 0.20 1 1014.7
20260505200100 64 259 3.0 11.0 0.00 0.20 0.20 1 1014.7
20260505194547 64 276 6.0 14.0 0.00 0.20 0.20 1 1014.8
20260505193037 64 252 3.0 15.0 0.00 0.20 0.20 1 1014.8
20260505191534 63 294 3.0 13.0 0.00 0.20 0.20 1 1014.8
20260505190029 59 313 4.0 11.0 0.00 0.20 0.20 1 1014.7
20260505184526 57 5 4.0 14.0 0.00 0.20 0.20 1 1014.8
20260505183020 57 247 3.0 11.0 0.00 0.20 0.20 1 1015.0
20260505181515 58 263 4.0 9.0 0.00 0.20 0.20 1 1015.1
20260505180020 58 41 0.0 3.0 0.00 0.20 0.20 1 1014.9
20260505174513 56 37 1.0 3.0 0.00 0.20 0.20 1 1014.7
20260505173004 55 323 0.0 1.0 0.00 0.20 0.20 1 1014.7
20260505171559 56 324 2.0 8.0 0.00 0.20 0.20 1 1014.5
20260505170057 57 155 0.0 5.0 0.01 0.20 0.20 1 1014.4
20260505164552 57 166 4.0 9.0 0.01 0.20 0.20 1 1014.3
20260505163051 57 162 3.0 6.0 0.01 0.20 0.20 1 1014.1
20260505161543 57 156 1.0 6.0 0.01 0.20 0.20 1 1014.1
20260505153031 56 49 1.0 3.0 0.00 0.19 0.19 1 1013.9
20260505151525 55 12 2.0 5.0 0.00 0.19 0.19 1 1013.7
20260505124545 56 329 2.0 5.0 0.02 0.18 0.18 1 1012.5
20260505123036 56 203 0.0 2.0 0.02 0.17 0.17 1 1012.3
20260505121533 56 203 0.0 1.0 0.02 0.17 0.17 1 1012.3
20260505120032 56 203 0.0 3.0 0.02 0.17 0.17 1 1012.3
20260505114524 55 203 0.0 0.0 0.02 0.16 0.16 1 1012.3
20260505113020 55 203 0.0 1.0 0.02 0.15 0.15 1 1012.4
20260505111515 55 203 0.0 3.0 0.02 0.15 0.15 1 1012.3
20260505101558 54 194 0.0 3.0 0.04 0.13 0.13 1 1012.5
20260505100055 54 194 1.0 3.0 0.05 0.12 0.12 1 1012.7
20260505094549 54 192 0.0 4.0 0.06 0.11 0.11 1 1012.7
20260505093046 54 228 0.0 2.0 0.07 0.10 0.10 1 1012.8
20260505091546 54 228 0.0 3.0 0.07 0.09 0.09 1 1013.0
20260505090038 54 215 2.0 8.0 0.06 0.07 0.07 1 1013.1
20260505084532 53 202 0.0 2.0 0.05 0.05 0.05 1 1013.2
20260505083029 53 202 0.0 0.0 0.03 0.03 0.03 1 1013.3
20260505081521 53 202 0.0 1.0 0.02 0.02 0.02 1 1013.5
20260505080018 53 202 1.0 6.0 0.00 0.00 0.00 1 1013.5
20260505074514 54 171 3.0 6.0 0.00 0.00 0.00 1 1013.4
20260505073009 55 168 0.0 5.0 0.00 0.00 0.00 1 1013.4
20260505071507 57 190 3.0 10.0 0.00 0.00 0.00 1 1013.5
20260505070101 59 173 3.0 5.0 0.00 0.00 0.00 1 1013.4